User: anonymous   Login
Location: Caltech
(34.1382°N, 118.1253°W)
Time: 18:54:02
(UTC-07:00)
Language:

Cosmos 1937 Rocket - Orbit

View from above orbital plane
View from above orbital plane
View from above satellite
View from above satellite

Ground track
Ground track

The orbit data is extracted from the following two-line orbital elements,

1 19039U 88029B   17291.83789429 -.00000016  00000-0  34919-5 0  9998
2 19039  74.0481  71.7235 0024266 216.3753 251.3425 14.38378302548637
Epoch (UTC): 18 October 2017 20:06:34
Eccentricity: 0.0024266
inclination: 74.0481°
perigee height: 746 km
apogee height: 781 km
right ascension of ascending node: 71.7235°
argument of perigee: 216.3753°
revolutions per day: 14.38378302
mean anomaly at epoch: 251.3425°
orbit number at epoch: 54863

The dashed part of the orbit path shows where the satellite is in the earth's shadow,  

DLR